TimeCDT,TemperatureF,Dew PointF,Humidity,Sea Level PressureIn,VisibilityMPH,Wind Direction,Wind SpeedMPH,Gust SpeedMPH,PrecipitationIn,Events,Conditions,WindDirDegrees,DateUTC
12:53 AM,70.0,61.0,73,29.93,10.0,South,18.4,29.9,N/A,,Mostly Cloudy,180,2012-03-18 05:53:00
1:53 AM,69.1,62.1,78,29.93,10.0,South,18.4,26.5,N/A,,Mostly Cloudy,180,2012-03-18 06:53:00
2:53 AM,68.0,62.1,81,29.94,10.0,South,16.1,-,N/A,,Mostly Cloudy,190,2012-03-18 07:53:00
3:08 AM,68.0,62.6,83,29.96,10.0,SSW,18.4,21.9,N/A,,Mostly Cloudy,200,2012-03-18 08:08:00
3:53 AM,68.0,63.0,84,29.92,10.0,South,18.4,25.3,N/A,,Overcast,180,2012-03-18 08:53:00
4:53 AM,68.0,63.0,84,29.91,10.0,South,12.7,-,N/A,,Overcast,180,2012-03-18 09:53:00
5:53 AM,68.0,63.0,84,29.92,10.0,South,12.7,-,N/A,,Overcast,170,2012-03-18 10:53:00
6:53 AM,68.0,63.0,84,29.92,10.0,South,13.8,-,N/A,,Overcast,170,2012-03-18 11:53:00
7:53 AM,68.0,63.0,84,29.94,10.0,South,17.3,21.9,N/A,,Overcast,170,2012-03-18 12:53:00
8:30 AM,68.0,62.6,83,29.96,10.0,South,13.8,24.2,N/A,,Overcast,170,2012-03-18 13:30:00
8:53 AM,68.0,64.0,87,29.94,10.0,SSE,13.8,-,N/A,,Overcast,160,2012-03-18 13:53:00
9:05 AM,69.8,64.4,83,29.96,10.0,SSE,15.0,19.6,N/A,,Overcast,160,2012-03-18 14:05:00
9:53 AM,70.0,64.0,81,29.95,10.0,SSE,15.0,23.0,N/A,,Overcast,160,2012-03-18 14:53:00
10:53 AM,71.1,64.0,78,29.96,10.0,SSE,17.3,-,N/A,,Overcast,160,2012-03-18 15:53:00
11:53 AM,73.0,64.9,76,29.94,10.0,South,19.6,32.2,N/A,,Mostly Cloudy,170,2012-03-18 16:53:00
12:47 PM,73.4,64.4,73,29.94,10.0,South,19.6,31.1,N/A,,Overcast,170,2012-03-18 17:47:00
12:53 PM,73.9,64.0,71,29.92,10.0,South,18.4,31.1,N/A,,Overcast,170,2012-03-18 17:53:00
1:13 PM,73.4,62.6,69,29.93,10.0,South,21.9,29.9,N/A,,Overcast,170,2012-03-18 18:13:00
1:32 PM,73.4,64.4,73,29.93,10.0,South,24.2,31.1,N/A,,Overcast,180,2012-03-18 18:32:00
1:53 PM,73.9,64.0,71,29.90,10.0,South,20.7,32.2,N/A,,Overcast,170,2012-03-18 18:53:00
2:53 PM,73.0,64.0,73,29.88,10.0,South,19.6,28.8,N/A,,Overcast,170,2012-03-18 19:53:00
3:47 PM,73.4,64.4,73,29.88,10.0,South,20.7,32.2,N/A,,Overcast,180,2012-03-18 20:47:00
3:53 PM,73.9,64.0,71,29.86,10.0,South,21.9,29.9,N/A,,Overcast,170,2012-03-18 20:53:00
4:53 PM,73.4,64.4,73,29.86,10.0,South,23.0,27.6,N/A,,Overcast,170,2012-03-18 21:53:00
5:29 PM,73.4,64.4,73,29.85,10.0,South,20.7,28.8,N/A,,Overcast,180,2012-03-18 22:29:00
5:53 PM,73.9,64.9,73,29.82,10.0,South,17.3,27.6,N/A,,Overcast,170,2012-03-18 22:53:00
6:53 PM,73.0,63.0,71,29.83,10.0,South,18.4,27.6,N/A,,Overcast,180,2012-03-18 23:53:00
7:53 PM,73.0,64.0,73,29.82,10.0,South,18.4,26.5,N/A,,Overcast,170,2012-03-19 00:53:00
8:53 PM,72.0,64.0,76,29.83,10.0,South,17.3,23.0,N/A,,Overcast,170,2012-03-19 01:53:00
9:53 PM,72.0,64.0,76,29.83,10.0,South,17.3,26.5,N/A,,Overcast,170,2012-03-19 02:53:00
10:53 PM,71.1,64.0,78,29.83,10.0,South,15.0,29.9,N/A,,Scattered Clouds,170,2012-03-19 03:53:00
11:53 PM,71.1,64.0,78,29.84,10.0,SSE,15.0,-,N/A,,Mostly Cloudy,160,2012-03-19 04:53:00